Simultaneous Nadir Overpasses (SNOs) Predictions

Prediction of SNOs between NOAA-19 and TERRA Satellite Orbit:

Table of predicted SNOs for the next 14.0 days since TLE Epoch: 4/12/2015
Index Date (NOAA-19) Time (NOAA-19) Lat,Lon (NOAA-19) SZA (NOAA-19 ) Date (TERRA) Time (TERRA) Lat,Lon (TERRA) SZA (TERRA ) Distance(km) Time Diff (sec)
1 04/13/2015 11:33:55 72.66, 8.17 63.55 04/13/2015 11:35:00 72.57, 11.05 63.51 96.36 65
2 04/13/2015 12:24:43 -71.77, 177.19 117.34 04/13/2015 12:24:43 -71.75, 177.22 117.36 1.81 0
3 04/13/2015 13:15:28 71.15, -14.40 62.05 04/13/2015 13:14:19 71.17, -16.09 62.04 60.73 69
4 04/15/2015 17:08:10 -71.83, 106.25 118.07 04/15/2015 17:08:57 -71.83, 106.30 118.06 1.90 47
5 04/15/2015 17:59:05 71.73, -86.29 61.82 04/15/2015 17:58:24 71.74, -86.22 61.83 2.88 41
6 04/17/2015 21:51:53 -72.70, 33.65 117.99 04/17/2015 21:52:58 -72.59, 36.60 118.04 98.81 65
7 04/17/2015 22:42:32 71.80,-157.26 61.12 04/17/2015 22:42:38 71.80,-157.17 61.12 2.95 6
8 04/17/2015 23:33:26 -71.20, 11.08 119.47 04/17/2015 23:32:16 -71.26, 9.55 119.46 55.10 70
9 04/20/2015 03:25:58 71.83, 131.86 60.40 04/20/2015 03:26:52 71.85, 131.85 60.41 1.48 54
10 04/20/2015 04:17:02 -71.74, -60.74 119.71 04/20/2015 04:16:22 -71.73, -60.71 119.72 1.34 40
11 04/22/2015 09:00:28 -71.79,-131.64 120.41 04/22/2015 09:00:36 -71.77,-131.72 120.44 3.53 8
12 04/22/2015 09:51:18 71.43, 36.29 59.24 04/22/2015 09:50:06 71.50, 35.47 59.28 30.04 72
13 04/24/2015 13:43:54 -71.84, 157.43
